TAM8078 SBGR-EHAM

Flight info

Callsign TAM8078
Flight time N/A
Altitude 37000
Route VUMEV UZ14 NITLU UZ3 UTLEV UZ88 DOTKU DCT DAKAP UZ51 MOVGA DCT POKSI/N0482F390 DCT NATAS/M084F390 DCT ERNEK DCT 25N030W 30N028W 35N025W DCT BAVAS/M084F410 DCT 43N020W 47N015W DCT TAMEL DCT EVBAK DCT GAPLI/N0486F410 DCT GAJIT DCT ENHAQ M197 REDFA
Aircraft A359/H-SDE2E3GHIJ3J4J5LM1ORWXY/LB1D1

Departure

Time 2026-05-03 21:42
Airport São Paulo/Guarulhos–Governor André Franco Montoro International Airport (SBGR)

Arrival

Time N/A
Airport Amsterdam Airport Schiphol (EHAM)
Time Latitude Longitude Altitude Speed Heading
2026-05-03 20:49 -23.42758 -46.47424 2467 ft 0 kts 74°
2026-05-03 21:27 -23.42762 -46.47440 2473 ft 4 kts 80°
2026-05-03 21:27 -23.42764 -46.47469 2467 ft 4 kts 92°
2026-05-03 21:28 -23.42761 -46.47498 2467 ft 4 kts 107°
2026-05-03 21:28 -23.42750 -46.47525 2473 ft 4 kts 127°
2026-05-03 21:28 -23.42731 -46.47543 2467 ft 3 kts 163°
2026-05-03 21:28 -23.42749 -46.47537 2470 ft 4 kts 163°
2026-05-03 21:29 -23.42762 -46.47533 2467 ft 0 kts 163°
2026-05-03 21:34 -23.42771 -46.47530 2471 ft 0 kts 163°
2026-05-03 21:34 -23.42772 -46.47529 2471 ft 2 kts 163°
2026-05-03 21:35 -23.42798 -46.47521 2473 ft 4 kts 163°
2026-05-03 21:35 -23.42822 -46.47513 2473 ft 4 kts 161°
2026-05-03 21:35 -23.42848 -46.47502 2475 ft 4 kts 159°
2026-05-03 21:35 -23.42876 -46.47491 2472 ft 6 kts 159°
2026-05-03 21:36 -23.42935 -46.47467 2470 ft 11 kts 160°
2026-05-03 21:36 -23.42994 -46.47452 2472 ft 6 kts 183°
2026-05-03 21:36 -23.43028 -46.47497 2474 ft 12 kts 244°
2026-05-03 21:36 -23.43052 -46.47583 2467 ft 12 kts 253°
2026-05-03 21:37 -23.43082 -46.47692 2474 ft 17 kts 253°
2026-05-03 21:37 -23.43119 -46.47828 2470 ft 19 kts 253°
2026-05-03 21:37 -23.43155 -46.47961 2472 ft 18 kts 253°
2026-05-03 21:37 -23.43188 -46.48081 2470 ft 16 kts 253°
2026-05-03 21:38 -23.43217 -46.48188 2473 ft 14 kts 253°
2026-05-03 21:38 -23.43243 -46.48283 2471 ft 12 kts 253°
2026-05-03 21:38 -23.43263 -46.48347 2469 ft 6 kts 239°
2026-05-03 21:38 -23.43291 -46.48362 2470 ft 3 kts 183°
2026-05-03 21:39 -23.43296 -46.48361 2468 ft 0 kts 178°
2026-05-03 21:40 -23.43326 -46.48355 2473 ft 11 kts 167°
2026-05-03 21:40 -23.43391 -46.48333 2472 ft 0 kts 151°
2026-05-03 21:41 -23.43412 -46.48307 2474 ft 9 kts 106°
2026-05-03 21:41 -23.43408 -46.48260 2470 ft 0 kts 74°
2026-05-03 21:41 -23.43352 -46.48051 2473 ft 60 kts 73°
2026-05-03 21:41 -23.43177 -46.47399 2473 ft 117 kts 73°
2026-05-03 21:42 -23.42898 -46.46371 2473 ft 165 kts 73°
2026-05-03 21:42 -23.42530 -46.45121 2936 ft 171 kts 74°
2026-05-03 21:42 -23.42166 -46.43933 3689 ft 161 kts 76°
2026-05-03 21:42 -23.41805 -46.42770 4178 ft 164 kts 75°
2026-05-03 21:43 -23.41446 -46.41587 4563 ft 164 kts 76°
2026-05-03 21:43 -23.41105 -46.40399 4946 ft 165 kts 78°
2026-05-03 21:43 -23.40766 -46.39154 5143 ft 179 kts 77°
2026-05-03 21:43 -23.40397 -46.37805 5348 ft 194 kts 76°
2026-05-03 21:44 -23.39949 -46.36346 5499 ft 214 kts 68°
2026-05-03 21:44 -23.39210 -46.34868 5729 ft 231 kts 60°
2026-05-03 21:44 -23.38324 -46.33338 6013 ft 247 kts 59°
2026-05-03 21:44 -23.37376 -46.31720 6375 ft 260 kts 58°
2026-05-03 21:45 -23.36403 -46.30055 6876 ft 267 kts 58°
2026-05-03 21:45 -23.35401 -46.28339 7427 ft 272 kts 57°
2026-05-03 21:45 -23.34373 -46.26574 7950 ft 280 kts 57°
2026-05-03 21:45 -23.33319 -46.24759 8469 ft 287 kts 57°
2026-05-03 21:46 -23.32242 -46.22904 9014 ft 294 kts 56°
2026-05-03 21:46 -23.31140 -46.21006 9603 ft 299 kts 56°
2026-05-03 21:46 -23.30022 -46.19080 10220 ft 302 kts 57°
2026-05-03 21:46 -23.28884 -46.17119 10604 ft 314 kts 57°
2026-05-03 21:47 -23.27691 -46.15067 10876 ft 329 kts 56°
2026-05-03 21:47 -23.26441 -46.12917 11138 ft 343 kts 56°
2026-05-03 21:47 -23.25138 -46.10676 11388 ft 358 kts 57°
2026-05-03 21:47 -23.23803 -46.08380 11631 ft 370 kts 57°
2026-05-03 21:48 -23.22383 -46.06018 12022 ft 377 kts 52°
2026-05-03 21:48 -23.20524 -46.04008 12455 ft 379 kts 32°
2026-05-03 21:48 -23.18162 -46.02748 12938 ft 380 kts 19°
2026-05-03 21:48 -23.15665 -46.01778 13410 ft 383 kts 17°
2026-05-03 21:49 -23.13119 -46.00867 13865 ft 387 kts 13°
2026-05-03 21:49 -23.10474 -46.00346 14287 ft 387 kts
2026-05-03 21:49 -23.07789 -46.00017 14725 ft 390 kts
2026-05-03 21:49 -23.05078 -45.99704 15100 ft 394 kts
2026-05-03 21:50 -23.02342 -45.99384 15486 ft 397 kts
2026-05-03 21:50 -22.99582 -45.99056 15874 ft 400 kts
2026-05-03 21:50 -22.96798 -45.98721 16217 ft 405 kts
2026-05-03 21:50 -22.93988 -45.98381 16615 ft 408 kts
2026-05-03 21:51 -22.91196 -45.97992 16982 ft 413 kts
2026-05-03 21:51 -22.88409 -45.97137 17340 ft 422 kts 19°
2026-05-03 21:51 -22.85788 -45.95656 17694 ft 428 kts 28°
2026-05-03 21:51 -22.83262 -45.93906 17988 ft 434 kts 31°
2026-05-03 21:52 -22.80777 -45.92027 18341 ft 438 kts 33°
2026-05-03 21:52 -22.78301 -45.90092 18653 ft 441 kts 33°
2026-05-03 21:52 -22.75808 -45.88139 18996 ft 443 kts 33°
2026-05-03 21:52 -22.73296 -45.86191 19338 ft 445 kts 32°
2026-05-03 21:53 -22.70763 -45.84252 19691 ft 447 kts 32°
2026-05-03 21:53 -22.68210 -45.82316 20050 ft 449 kts 31°
2026-05-03 21:53 -22.65643 -45.80380 20422 ft 451 kts 31°
2026-05-03 21:53 -22.63058 -45.78437 20773 ft 454 kts 31°
2026-05-03 21:54 -22.60458 -45.76492 21113 ft 455 kts 31°
2026-05-03 21:54 -22.57844 -45.74541 21483 ft 457 kts 31°
2026-05-03 21:54 -22.55261 -45.72606 21877 ft 459 kts 31°
2026-05-03 21:54 -22.52636 -45.70636 22255 ft 460 kts 31°
2026-05-03 21:55 -22.50004 -45.68656 22619 ft 462 kts 31°
2026-05-03 21:55 -22.47357 -45.66670 23002 ft 464 kts 31°
2026-05-03 21:55 -22.44696 -45.64677 23352 ft 467 kts 30°
2026-05-03 21:55 -22.42019 -45.62676 23692 ft 469 kts 30°
2026-05-03 21:56 -22.39327 -45.60665 24008 ft 472 kts 30°
2026-05-03 21:56 -22.36620 -45.58642 24332 ft 474 kts 30°
2026-05-03 21:56 -22.33903 -45.56613 24637 ft 476 kts 30°
2026-05-03 21:56 -22.31206 -45.54598 24951 ft 479 kts 30°
2026-05-03 21:57 -22.28461 -45.52549 25287 ft 481 kts 30°
2026-05-03 21:57 -22.25701 -45.50490 25626 ft 483 kts 30°
2026-05-03 21:57 -22.22933 -45.48424 25954 ft 485 kts 30°
2026-05-03 21:57 -22.20154 -45.46353 26326 ft 486 kts 30°
2026-05-03 21:58 -22.17370 -45.44277 26642 ft 488 kts 30°
2026-05-03 21:58 -22.14563 -45.42185 26929 ft 491 kts 29°
2026-05-03 21:58 -22.11744 -45.40089 27254 ft 494 kts 29°
2026-05-03 21:58 -22.08912 -45.37982 27591 ft 495 kts 30°
2026-05-03 21:59 -22.06074 -45.35871 27962 ft 497 kts 29°
2026-05-03 21:59 -22.03225 -45.33751 28273 ft 499 kts 29°
2026-05-03 21:59 -22.00407 -45.31527 28565 ft 504 kts 32°
2026-05-03 21:59 -21.97641 -45.29193 28835 ft 507 kts 33°
2026-05-03 22:00 -21.94923 -45.26837 29119 ft 510 kts 33°
2026-05-03 22:00 -21.92160 -45.24433 29424 ft 512 kts 33°
2026-05-03 22:00 -21.89378 -45.22030 29666 ft 514 kts 33°
2026-05-03 22:00 -21.86571 -45.19629 29947 ft 516 kts 33°
2026-05-03 22:01 -21.83748 -45.17237 30233 ft 517 kts 33°
2026-05-03 22:01 -21.80907 -45.14842 30467 ft 520 kts 33°
2026-05-03 22:01 -21.78057 -45.12443 30701 ft 521 kts 33°
2026-05-03 22:01 -21.75202 -45.10041 30917 ft 523 kts 33°
2026-05-03 22:02 -21.72330 -45.07629 31150 ft 524 kts 33°
2026-05-03 22:02 -21.69451 -45.05210 31350 ft 525 kts 33°
2026-05-03 22:02 -21.66568 -45.02789 31579 ft 527 kts 33°
2026-05-03 22:02 -21.63672 -45.00358 31778 ft 529 kts 33°
2026-05-03 22:03 -21.60810 -44.97957 31945 ft 530 kts 33°
2026-05-03 22:03 -21.57899 -44.95516 32167 ft 531 kts 33°
2026-05-03 22:03 -21.54978 -44.93068 32346 ft 533 kts 33°
2026-05-03 22:03 -21.52058 -44.90622 32645 ft 532 kts 33°
2026-05-03 22:04 -21.49145 -44.88182 32932 ft 531 kts 32°
2026-05-03 22:04 -21.46235 -44.85746 33194 ft 530 kts 32°
2026-05-03 22:04 -21.43329 -44.83315 33458 ft 529 kts 32°
2026-05-03 22:04 -21.40428 -44.80890 33740 ft 527 kts 32°
2026-05-03 22:05 -21.37544 -44.78478 34082 ft 525 kts 32°
2026-05-03 22:05 -21.34665 -44.76078 34316 ft 524 kts 32°
2026-05-03 22:05 -21.31781 -44.73672 34489 ft 525 kts 32°
2026-05-03 22:05 -21.28942 -44.71301 34656 ft 525 kts 32°
2026-05-03 22:06 -21.26065 -44.68899 34850 ft 525 kts 32°
2026-05-03 22:06 -21.23181 -44.66493 35023 ft 524 kts 33°
2026-05-03 22:06 -21.20316 -44.64105 35292 ft 521 kts 33°
2026-05-03 22:06 -21.17450 -44.61719 35466 ft 521 kts 33°
2026-05-03 22:07 -21.14587 -44.59334 35613 ft 522 kts 33°
2026-05-03 22:07 -21.11719 -44.56946 35762 ft 522 kts 33°
2026-05-03 22:07 -21.08849 -44.54559 35937 ft 522 kts 33°
2026-05-03 22:07 -21.05984 -44.52176 36077 ft 522 kts 33°
2026-05-03 22:08 -21.03115 -44.49791 36240 ft 522 kts 33°
2026-05-03 22:08 -21.00291 -44.47445 36394 ft 521 kts 33°
2026-05-03 22:08 -20.97427 -44.45067 36551 ft 521 kts 33°
2026-05-03 22:08 -20.94561 -44.42691 36650 ft 521 kts 33°
2026-05-03 22:09 -20.91696 -44.40317 36781 ft 521 kts 33°
2026-05-03 22:09 -20.88826 -44.37940 36922 ft 521 kts 33°
2026-05-03 22:09 -20.85962 -44.35569 37060 ft 520 kts 33°
2026-05-03 22:10 -20.80226 -44.30827 37170 ft 523 kts 33°
2026-05-03 22:10 -20.74459 -44.26062 37168 ft 525 kts 33°
2026-05-03 22:11 -20.68687 -44.21295 37171 ft 524 kts 33°
2026-05-03 22:11 -20.62962 -44.16572 37161 ft 523 kts 33°
2026-05-03 22:12 -20.57236 -44.11776 37168 ft 524 kts 34°
2026-05-03 22:12 -20.51156 -44.07676 37162 ft 511 kts 18°
2026-05-03 22:13 -20.44408 -44.05805 37159 ft 497 kts
2026-05-03 22:13 -20.37594 -44.05079 37152 ft 495 kts 359°
2026-05-03 22:14 -20.30725 -44.04523 37151 ft 495 kts 359°
2026-05-03 22:14 -20.23858 -44.03951 37143 ft 495 kts 359°
2026-05-03 22:15 -20.16994 -44.03347 37132 ft 494 kts 359°
2026-05-03 22:15 -20.10141 -44.02729 37138 ft 495 kts 359°
2026-05-03 22:16 -20.03290 -44.01836 37157 ft 498 kts
2026-05-03 22:16 -19.96513 -44.00490 37147 ft 499 kts
2026-05-03 22:17 -19.89688 -43.99136 37161 ft 499 kts
2026-05-03 22:17 -19.82858 -43.97861 37161 ft 498 kts
2026-05-03 22:18 -19.76025 -43.96624 37146 ft 498 kts
2026-05-03 22:18 -19.69185 -43.95393 37143 ft 499 kts
2026-05-03 22:19 -19.62345 -43.94159 37158 ft 498 kts
2026-05-03 22:19 -19.55554 -43.92935 37145 ft 499 kts
2026-05-03 22:20 -19.48709 -43.91701 37140 ft 499 kts
2026-05-03 22:20 -19.41864 -43.90467 37130 ft 499 kts
2026-05-03 22:21 -19.35020 -43.89235 37109 ft 499 kts
2026-05-03 22:21 -19.28218 -43.88011 37093 ft 500 kts
2026-05-03 22:22 -19.21360 -43.86779 37091 ft 500 kts
2026-05-03 22:22 -19.14496 -43.85546 37091 ft 500 kts
2026-05-03 22:23 -19.07634 -43.84314 37085 ft 500 kts
2026-05-03 22:23 -19.00803 -43.83090 37097 ft 502 kts
2026-05-03 22:24 -18.93918 -43.81856 37100 ft 501 kts
2026-05-03 22:24 -18.87041 -43.80625 37098 ft 501 kts
2026-05-03 22:25 -18.80168 -43.79395 37100 ft 501 kts
2026-05-03 22:25 -18.73335 -43.78176 37103 ft 501 kts
2026-05-03 22:26 -18.66458 -43.76949 37104 ft 501 kts
2026-05-03 22:26 -18.59581 -43.75722 37106 ft 502 kts
2026-05-03 22:27 -18.52694 -43.74494 37111 ft 502 kts
2026-05-03 22:27 -18.45848 -43.73274 37117 ft 502 kts
2026-05-03 22:28 -18.38959 -43.72047 37114 ft 502 kts
2026-05-03 22:28 -18.32062 -43.70823 37115 ft 503 kts
2026-05-03 22:29 -18.25164 -43.69597 37118 ft 503 kts
2026-05-03 22:29 -18.18308 -43.68379 37114 ft 503 kts
2026-05-03 22:30 -18.11408 -43.67114 37105 ft 505 kts
2026-05-03 22:30 -18.04593 -43.65191 37113 ft 508 kts 12°
2026-05-03 22:31 -17.97800 -43.63109 37118 ft 508 kts 12°
2026-05-03 22:31 -17.91068 -43.61020 37095 ft 507 kts 12°
2026-05-03 22:32 -17.84300 -43.58931 37102 ft 507 kts 12°
2026-05-03 22:32 -17.77536 -43.56853 37098 ft 507 kts 12°
2026-05-03 22:33 -17.70770 -43.54780 37099 ft 507 kts 12°
2026-05-03 22:33 -17.64047 -43.52722 37097 ft 507 kts 12°
2026-05-03 22:34 -17.57284 -43.50655 37095 ft 506 kts 12°
2026-05-03 22:34 -17.50516 -43.48583 37093 ft 507 kts 12°
2026-05-03 22:35 -17.43753 -43.46514 37081 ft 506 kts 12°
2026-05-03 22:35 -17.36988 -43.44449 37088 ft 506 kts 12°
2026-05-03 22:36 -17.30268 -43.42398 37096 ft 506 kts 12°
2026-05-03 22:36 -17.23509 -43.40336 37089 ft 506 kts 12°
2026-05-03 22:37 -17.16751 -43.38280 37091 ft 505 kts 12°
2026-05-03 22:37 -17.09996 -43.36223 37094 ft 506 kts 12°
2026-05-03 22:38 -17.03245 -43.34169 37092 ft 505 kts 12°
2026-05-03 22:38 -16.96532 -43.32128 37091 ft 505 kts 13°
2026-05-03 22:39 -16.89784 -43.30078 37088 ft 505 kts 13°
2026-05-03 22:39 -16.83037 -43.28029 37090 ft 505 kts 13°
2026-05-03 22:40 -16.76287 -43.25982 37093 ft 505 kts 13°
2026-05-03 22:40 -16.69586 -43.23952 37088 ft 505 kts 13°
2026-05-03 22:41 -16.62842 -43.21908 37086 ft 504 kts 13°
2026-05-03 22:41 -16.56101 -43.19869 37083 ft 504 kts 13°
2026-05-03 22:42 -16.49359 -43.17832 37084 ft 505 kts 13°
2026-05-03 22:42 -16.42657 -43.15807 37083 ft 505 kts 13°
2026-05-03 22:43 -16.35913 -43.13770 37085 ft 505 kts 13°
2026-05-03 22:43 -16.29170 -43.11734 37083 ft 505 kts 13°
2026-05-03 22:44 -16.22427 -43.09701 37078 ft 505 kts 13°
2026-05-03 22:44 -16.15693 -43.07635 37075 ft 505 kts 15°
2026-05-03 22:45 -16.09083 -43.05268 37072 ft 506 kts 17°
2026-05-03 22:45 -16.02455 -43.02804 37069 ft 506 kts 17°
2026-05-03 22:46 -15.95816 -43.00385 37065 ft 506 kts 16°
2026-05-03 22:46 -15.89159 -42.97997 37062 ft 506 kts 16°
2026-05-03 22:47 -15.82549 -42.95638 37060 ft 506 kts 16°
2026-05-03 22:47 -15.75894 -42.93266 37062 ft 506 kts 16°
2026-05-03 22:48 -15.69240 -42.90891 37053 ft 506 kts 16°
2026-05-03 22:48 -15.62588 -42.88517 37054 ft 506 kts 16°
2026-05-03 22:49 -15.55932 -42.86144 37046 ft 505 kts 16°
2026-05-03 22:49 -15.49326 -42.83791 37059 ft 505 kts 16°
2026-05-03 22:50 -15.42670 -42.81422 37057 ft 506 kts 16°
2026-05-03 22:50 -15.36015 -42.79055 37055 ft 506 kts 16°
2026-05-03 22:51 -15.29363 -42.76691 37060 ft 506 kts 17°
2026-05-03 22:51 -15.22748 -42.74341 37059 ft 506 kts 17°
2026-05-03 22:52 -15.16094 -42.71975 37063 ft 506 kts 17°
2026-05-03 22:52 -15.09435 -42.69614 37065 ft 506 kts 17°
2026-05-03 22:53 -15.02773 -42.67255 37060 ft 506 kts 17°
2026-05-03 22:53 -14.96108 -42.64893 37061 ft 506 kts 17°
2026-05-03 22:54 -14.89487 -42.62549 37054 ft 506 kts 17°
2026-05-03 22:54 -14.82820 -42.60191 37049 ft 506 kts 17°
2026-05-03 22:55 -14.76152 -42.57835 37053 ft 506 kts 17°
2026-05-03 22:55 -14.69489 -42.55479 37052 ft 506 kts 17°
2026-05-03 22:56 -14.62867 -42.53138 37045 ft 506 kts 17°
2026-05-03 22:56 -14.56201 -42.50785 37051 ft 506 kts 17°
2026-05-03 22:57 -14.49531 -42.48433 37045 ft 506 kts 17°
2026-05-03 22:57 -14.42864 -42.46088 37046 ft 507 kts 17°
2026-05-03 22:58 -14.36192 -42.43740 37050 ft 507 kts 17°
2026-05-03 22:58 -14.29567 -42.41405 37052 ft 506 kts 17°
2026-05-03 22:59 -14.22901 -42.39058 37050 ft 506 kts 17°
2026-05-03 22:59 -14.16240 -42.36715 37051 ft 506 kts 17°
2026-05-03 23:00 -14.09580 -42.34376 37051 ft 506 kts 17°
2026-05-03 23:00 -14.02960 -42.32052 37053 ft 506 kts 17°
2026-05-03 23:01 -13.96302 -42.29715 37052 ft 506 kts 17°
2026-05-03 23:01 -13.89638 -42.27377 37047 ft 506 kts 17°
2026-05-03 23:02 -13.82978 -42.25042 37048 ft 506 kts 17°
2026-05-03 23:02 -13.76363 -42.22725 37048 ft 506 kts 17°
2026-05-03 23:03 -13.69701 -42.20393 37051 ft 505 kts 17°
2026-05-03 23:03 -13.63046 -42.18065 37051 ft 505 kts 17°
2026-05-03 23:04 -13.56398 -42.15707 37053 ft 505 kts 18°
2026-05-03 23:04 -13.49762 -42.13325 37057 ft 505 kts 18°
2026-05-03 23:05 -13.43173 -42.10963 37062 ft 505 kts 18°
2026-05-03 23:05 -13.36535 -42.08592 37062 ft 505 kts 18°
2026-05-03 23:06 -13.29898 -42.06224 37064 ft 505 kts 18°
2026-05-03 23:06 -13.23262 -42.03858 37065 ft 505 kts 18°
2026-05-03 23:07 -13.16628 -42.01493 37075 ft 505 kts 18°
2026-05-03 23:07 -13.10037 -41.99146 37074 ft 505 kts 18°
2026-05-03 23:08 -13.03405 -41.96785 37079 ft 504 kts 18°
2026-05-03 23:08 -12.96779 -41.94429 37087 ft 504 kts 18°
2026-05-03 23:09 -12.90151 -41.92071 37089 ft 504 kts 18°
2026-05-03 23:09 -12.83565 -41.89731 37086 ft 504 kts 18°
2026-05-03 23:10 -12.76942 -41.87379 37088 ft 504 kts 18°
2026-05-03 23:10 -12.70315 -41.85027 37089 ft 504 kts 18°
2026-05-03 23:11 -12.63692 -41.82677 37087 ft 504 kts 18°
2026-05-03 23:11 -12.57065 -41.80328 37086 ft 504 kts 18°
2026-05-03 23:12 -12.51561 -41.78377 37087 ft 504 kts 18°
2026-05-03 23:12 -12.43860 -41.75649 37081 ft 504 kts 18°
2026-05-03 23:13 -12.37240 -41.73306 37080 ft 504 kts 18°
2026-05-03 23:13 -12.30614 -41.70961 37079 ft 504 kts 18°
2026-05-03 23:14 -12.25103 -41.69013 37078 ft 504 kts 18°
2026-05-03 23:14 -12.18475 -41.66670 37076 ft 504 kts 18°
2026-05-03 23:15 -12.11846 -41.64328 37073 ft 504 kts 18°
2026-05-03 23:15 -12.05218 -41.61987 37073 ft 504 kts 18°
2026-05-03 23:16 -11.98638 -41.59665 37071 ft 504 kts 18°
2026-05-03 23:16 -11.92011 -41.57328 37069 ft 504 kts 18°
2026-05-03 23:17 -11.85386 -41.54993 37072 ft 503 kts 17°
2026-05-03 23:17 -11.78767 -41.52660 37067 ft 503 kts 17°
2026-05-03 23:18 -11.72200 -41.50348 37069 ft 503 kts 17°
2026-05-03 23:18 -11.65564 -41.48107 37070 ft 502 kts 15°
2026-05-03 23:19 -11.58876 -41.46059 37067 ft 502 kts 14°
2026-05-03 23:19 -11.52185 -41.44019 37061 ft 502 kts 14°
2026-05-03 23:20 -11.45546 -41.41964 37065 ft 502 kts 14°
2026-05-03 23:20 -11.38867 -41.39879 37063 ft 502 kts 15°